2021-134B (50573 NORAD) Tracking and Keplerian Element Data
This shows tracking and keplerian element data for the satellite.
Feedback or suggestion? Click here.
Element | Value |
Catalog | 50573 |
Name | 2021-134B |
Epoch Orbit | 434 |
Epoch Day | 27.14441181 |
Epoch Year | 2022 |
RAAN | 184.3318 |
Inclination | 88.9992 |
Eccentricity | 0.0013266 |
Argument of Perigee | 157.489 |
Mean Anonmoly | 320.331 |
Mean Motion | 15.24927959 |
Decay Rate | 1.448E-05 |
L1 | 1 50573U 21134B 22027.14441181 .00001448 00000+0 56845-4 0 9996 |
L2 | 2 50573 88.9992 184.3318 0013266 157.4890 320.3310 15.24927959 4343 |
Live tracking and technical data element details for 2021-134B (NORAD 50573). 2021-134B can be tracked NOW for your location showing map with azimuth and elevation plus other details from your city location.
Track the satellite on the map from your city or location and see movement details for azimuth, elevation, latitude, longitude, range, height, and movement on the map or in text.
IsCatalogInMostPopularTable: catalog: 50573, numindb: 29
Update: records affected: 1
GetName: 50573 2021-134B
Hit Count: updated at: Mon, 23 May 2022 20:14:16 GMT